ボアッティーニ彗星

398P/Boattini (2004)

English version
Home page
Updated on May 17, 2021

---------------------------------------------------------------------

・ プロフィール

・ 写真集

・ 軌道要素

Epoch 2004 Mar. 16.0 TT = JDT 2453080.5                                         
T 2004 Apr. 4.18232 TT                                  Rudenko                 
q   1.3675228            (2000.0)            P               Q                  
n   0.17431665     Peri.  318.77077     +0.03802412     -0.98857490             
a   3.1737799      Node   128.53159     +0.95874097     -0.00505993             
e   0.5691186      Incl.   10.74585     +0.28172667     +0.15064549             
P   5.65                                                                        
From 1477 observations 2009 Aug. 26-2020 Dec. 30, mean residual 0".9.           

・ 光度変化

        m1 = 15.0 + 5 logΔ + 10.0 log r

---------------------------------------------------------------------

軌道要素はM.P.E.C. 2021-A190に掲載されたものです。
光度グラフはComet for Windowsで作成したものです。

---------------------------------------------------------------------

Copyright(C) Seiichi Yoshida (comet@aerith.net). All rights reserved.